Date String (YYYY-MM-DD hh:mm:ss) UTC,Instrument flags,absolute air pressure of the measurement (hPa),sample flow rate (lpm),inlet stack bypass flow (lpm),air temperature of the measurement (°C),ambient temperature measured by the external sensor (°C),aerosol sample conditioner tube jacket temperature (°C),OPC LED temperature (°C),internal box temperature (°C),relative humidity of the measurement (%),span deviation,mass concentration of particles derived from Lorenz-Mie calculation of OPC scattering (μg/m³),mass concentration of particles derived from Lorenz-Mie calculation of OPC scattering (μg/m³),mass concentration of particles derived from Lorenz-Mie calculation of OPC scattering (μg/m³)
DateTimeUTC,F1_M11,P_M11,Q1_M11,Q2_M11,T1_M11,T2_M11,T3_M11,T4_M11,T5_M11,U1_M11,ZSPAN_M11,X0_M11,X2_M11,X1_M11
2024-01-23 08:00:00,SystemResetWarning,0825.5,5.00,000.00,023.5,022.3,000.0,031.9,024.9,15.9,0001.5,0010.71,0006.51,0006.29
2024-01-23 08:01:00,SystemResetWarning,0825.5,4.99,000.00,023.5,022.3,000.0,031.9,024.8,15.9,0001.5,0010.82,0006.59,0006.33
2024-01-23 08:02:00,SystemResetWarning,0825.5,4.99,000.00,023.5,022.3,000.0,031.8,024.8,15.9,0001.7,0011.07,0006.61,0006.37
2024-01-23 08:03:00,SystemResetWarning,0825.4,5.00,000.00,023.5,022.3,000.0,031.8,024.8,15.9,0001.6,0010.66,0006.63,0006.40
2024-01-23 08:04:00,SystemResetWarning,0825.4,5.00,000.00,023.5,022.2,000.0,031.8,024.8,15.9,0001.4,0010.78,0006.69,0006.44
2024-01-23 08:05:00,SystemResetWarning,0825.4,5.01,000.00,023.4,022.2,000.0,031.8,024.8,15.9,0001.6,0010.80,0006.73,0006.47
2024-01-23 08:06:00,SystemResetWarning,0825.4,5.00,000.00,023.4,022.2,000.0,031.8,024.8,15.9,0001.7,0010.80,0006.80,0006.54
2024-01-23 08:07:00,SystemResetWarning,0825.4,5.00,000.00,023.4,022.2,000.0,031.8,024.8,15.9,0001.8,0011.00,0006.86,0006.59
2024-01-23 08:08:00,SystemResetWarning,0825.4,5.00,000.00,023.4,022.2,000.0,031.8,024.8,15.9,0002.0,0011.27,0006.94,0006.66
2024-01-23 08:09:00,SystemResetWarning,0825.4,4.99,000.00,023.4,022.2,000.0,031.8,024.8,15.9,0002.3,0011.39,0007.01,0006.72
2024-01-23 08:10:00,SystemResetWarning,0825.4,4.99,000.00,023.4,022.2,000.0,031.8,024.8,15.9,0002.5,0011.42,0007.04,0006.75
2024-01-23 08:11:00,SystemResetWarning,0825.4,5.00,000.00,023.4,022.2,000.0,031.8,024.8,15.9,0002.7,0011.39,0007.07,0006.79
2024-01-23 08:12:00,SystemResetWarning,0825.4,5.00,000.00,023.4,022.2,000.0,031.8,024.8,15.9,0002.7,0011.34,0007.09,0006.82
2024-01-23 08:13:00,SystemResetWarning,0825.4,5.00,000.00,023.4,022.2,000.0,031.8,024.8,15.9,0002.8,0011.08,0007.13,0006.85
2024-01-23 08:14:00,SystemResetWarning,0825.4,5.01,000.00,023.4,022.2,000.0,031.8,024.8,15.9,0002.8,0010.91,0007.18,0006.89
2024-01-23 08:15:00,SystemResetWarning,0825.4,5.00,000.00,023.4,022.1,000.0,031.8,024.8,15.9,0002.8,0010.86,0007.19,0006.91
2024-01-23 08:16:00,SystemResetWarning,0825.4,4.99,000.00,023.4,022.1,000.0,031.8,024.8,15.9,0002.8,0011.21,0007.25,0006.97
2024-01-23 08:17:00,SystemResetWarning,0825.3,5.00,000.00,023.4,022.1,000.0,031.7,024.8,15.9,0002.9,0011.57,0007.30,0007.00
2024-01-23 08:18:00,SystemResetWarning,0825.4,4.99,000.00,023.4,022.1,000.0,031.7,024.7,15.9,0002.9,0011.54,0007.37,0007.04
2024-01-23 08:19:00,SystemResetWarning,0825.4,5.00,000.00,023.4,022.1,000.0,031.7,024.7,15.9,0002.8,0011.36,0007.40,0007.07
2024-01-23 08:20:00,SystemResetWarning,0825.4,5.01,000.00,023.3,022.1,000.0,031.7,024.7,16.0,0002.8,0011.35,0007.42,0007.11
2024-01-23 08:21:00,SystemResetWarning,0825.4,5.01,000.00,023.3,022.1,000.0,031.7,024.7,16.0,0002.7,0011.44,0007.47,0007.15
2024-01-23 08:22:00,SystemResetWarning,0825.4,5.00,000.00,023.3,022.1,000.0,031.7,024.7,16.0,0002.5,0011.54,0007.53,0007.19
2024-01-23 08:23:00,SystemResetWarning,0825.4,5.00,000.00,023.3,022.1,000.0,031.7,024.7,16.1,0002.3,0011.57,0007.56,0007.23
2024-01-23 08:24:00,SystemResetWarning,0825.4,4.99,000.00,023.3,022.2,000.0,031.7,024.8,16.0,0002.5,0011.46,0007.60,0007.27
2024-01-23 08:25:00,SystemResetWarning,0825.4,4.99,000.00,023.3,022.2,000.0,031.7,024.8,16.0,0002.5,0012.05,0007.65,0007.33
2024-01-23 08:26:00,SystemResetWarning,0825.4,5.00,000.00,023.3,022.2,000.0,031.7,024.8,16.0,0002.4,0012.30,0007.70,0007.37
2024-01-23 08:27:00,SystemResetWarning,0825.4,5.00,000.00,023.3,022.2,000.0,031.7,024.7,16.0,0002.4,0012.18,0007.75,0007.42
2024-01-23 08:28:00,SystemResetWarning,0825.4,5.01,000.00,023.3,022.2,000.0,031.7,024.7,16.0,0002.4,0011.81,0007.76,0007.46
2024-01-23 08:29:00,SystemResetWarning,0825.4,4.99,000.00,023.3,022.3,000.0,031.7,024.7,16.1,0002.5,0011.73,0007.74,0007.47
2024-01-23 08:30:00,SystemResetWarning,0825.4,4.99,000.00,023.3,022.3,000.0,031.7,024.7,16.1,0002.5,0011.71,0007.77,0007.51
2024-01-23 08:31:00,SystemResetWarning,0825.4,5.00,000.00,023.3,022.3,000.0,031.7,024.7,16.1,0002.4,0011.79,0007.81,0007.53
2024-01-23 08:32:00,SystemResetWarning,0825.4,5.00,000.00,023.3,022.3,000.0,031.7,024.7,16.1,0002.5,0011.77,0007.82,0007.54
2024-01-23 08:33:00,SystemResetWarning,0825.4,5.01,000.00,023.3,022.3,000.0,031.7,024.7,16.2,0002.7,0011.83,0007.86,0007.56
2024-01-23 08:34:00,SystemResetWarning,0825.3,5.00,000.00,023.3,022.3,000.0,031.7,024.7,16.2,0002.7,0011.90,0007.90,0007.60
2024-01-23 08:35:00,SystemResetWarning,0825.4,4.99,000.00,023.3,022.3,000.0,031.7,024.7,16.2,0002.5,0011.93,0007.95,0007.63
2024-01-23 08:36:00,SystemResetWarning,0825.3,5.00,000.00,023.3,022.3,000.0,031.7,024.7,16.2,0002.4,0011.59,0008.00,0007.68
2024-01-23 08:37:00,SystemResetWarning,0825.4,5.01,000.00,023.3,022.3,000.0,031.7,024.7,16.3,0002.4,0011.35,0008.08,0007.75
2024-01-23 08:38:00,SystemResetWarning,0825.4,5.01,000.00,023.3,022.3,000.0,031.7,024.7,16.3,0002.4,0011.40,0008.13,0007.81
2024-01-23 08:39:00,SystemResetWarning,0825.3,5.00,000.00,023.2,022.3,000.0,031.7,024.7,16.3,0002.3,0011.55,0008.22,0007.86
2024-01-23 08:40:00,SystemResetWarning,0825.3,5.00,000.00,023.2,022.3,000.0,031.7,024.6,16.3,0002.2,0011.68,0008.31,0007.93
2024-01-23 08:41:00,SystemResetWarning,0825.3,4.99,000.00,023.2,022.2,000.0,031.6,024.6,16.3,0002.2,0012.03,0008.39,0008.00
2024-01-23 08:42:00,SystemResetWarning,0825.3,5.00,000.00,023.2,022.3,000.0,031.6,024.7,16.3,0002.0,0012.46,0008.47,0008.07
2024-01-23 08:43:00,SystemResetWarning,0825.3,5.01,000.00,023.2,022.3,000.0,031.6,024.7,16.3,0002.0,0012.74,0008.56,0008.14
2024-01-23 08:44:00,SystemResetWarning,0825.3,5.01,000.00,023.2,022.2,000.0,031.6,024.6,16.3,0001.8,0012.85,0008.66,0008.22
2024-01-23 08:45:00,SystemResetWarning,0825.3,4.99,000.00,023.2,022.2,000.0,031.6,024.6,16.3,0001.8,0012.92,0008.69,0008.26
2024-01-23 08:46:00,SystemResetWarning,0825.3,4.99,000.00,023.2,022.2,000.0,031.6,024.6,16.3,0001.7,0012.93,0008.70,0008.27
2024-01-23 08:47:00,SystemResetWarning,0825.3,5.00,000.00,023.2,022.2,000.0,031.6,024.6,16.3,0001.9,0012.93,0008.69,0008.27
2024-01-23 08:48:00,SystemResetWarning,0825.3,5.01,000.00,023.2,022.2,000.0,031.6,024.6,16.3,0002.0,0012.93,0008.68,0008.27
2024-01-23 08:49:00,SystemResetWarning,0825.3,5.00,000.00,023.2,022.2,000.0,031.6,024.6,16.3,0002.0,0012.93,0008.66,0008.23
2024-01-23 08:50:00,SystemResetWarning,0825.3,5.00,000.00,023.2,022.1,000.0,031.6,024.6,16.3,0002.2,0013.42,0008.62,0008.20
2024-01-23 08:51:00,SystemResetWarning,0825.3,5.00,000.00,023.2,022.1,000.0,031.6,024.6,16.3,0002.2,0013.47,0008.55,0008.12
2024-01-23 08:52:00,SystemResetWarning,0825.3,5.00,000.00,023.2,022.1,000.0,031.6,024.6,16.3,0002.1,0013.16,0008.45,0008.01
2024-01-23 08:53:00,SystemResetWarning,0825.3,5.00,000.00,023.2,022.1,000.0,031.6,024.6,16.3,0002.2,0012.68,0008.31,0007.89
2024-01-23 08:54:00,SystemResetWarning,0825.3,5.00,000.00,023.2,022.1,000.0,031.6,024.6,16.3,0002.2,0012.32,0008.17,0007.78
2024-01-23 08:55:00,SystemResetWarning,0825.3,4.99,000.00,023.2,022.1,000.0,031.6,024.6,16.3,0002.4,0012.30,0007.98,0007.62
2024-01-23 08:56:00,SystemResetWarning,0825.3,4.99,000.00,023.2,022.0,000.0,031.6,024.6,16.4,0002.5,0012.14,0007.85,0007.49
2024-01-23 08:57:00,SystemResetWarning,0825.3,5.00,000.00,023.2,022.0,000.0,031.6,024.6,16.4,0002.6,0012.00,0007.74,0007.38
2024-01-23 08:58:00,SystemResetWarning,0825.3,5.00,000.00,023.2,022.0,000.0,031.5,024.5,16.4,0002.6,0011.87,0007.65,0007.27
2024-01-23 08:59:00,SystemResetWarning,0825.3,5.00,000.00,023.2,022.0,000.0,031.5,024.5,16.4,0002.5,0011.70,0007.49,0007.12
